Location: Marcé
(47.5801°N, 0.3280°W)
Time: 11:11:56
(UTC+01:00)

Vanguard 3 - Pass Details

Date: 01 December 2021
Orbit: 508 x 3260 km, 33.3° (Epoch: 17 January)

Event Time Altitude Azimuth Distance (km) Brightness Sun altitude
Exits shadow 04:41:32 15° 205° (SSW) 5,761 11.1 -37.5°
Maximum altitude 04:55:15 34° 155° (SSE) 4,214 10.8 -35.2°
Drops below altitude 10° 05:08:24 10° 99° (E) 5,027 12.0 -32.9°
Sets 05:12:11 0° 90° (E) 5,684 12.6 -32.3°
